Time,TemperatureF,DewpointF,PressureIn,WindDirection,WindDirectionDegrees,WindSpeedMPH,WindSpeedGustMPH,Humidity,HourlyPrecipIn,Conditions,Clouds,dailyrainin,SoftwareType,DateUTC
2013-01-22 00:01:00,23.0,13.0,30.20,NNW,338,0.1,0.9,65,0.00,,,0.00,WUHU216HW,2013-01-22 06:01:00,
2013-01-22 00:06:00,23.0,13.0,30.19,North,0,0.3,0.7,65,0.00,,,0.00,WUHU216HW,2013-01-22 06:06:00,
2013-01-22 00:11:00,23.2,12.8,30.19,NNE,23,0.8,1.1,64,0.00,,,0.00,WUHU216HW,2013-01-22 06:11:00,
2013-01-22 00:16:00,23.0,12.6,30.19,North,0,0.6,1.1,64,0.00,,,0.00,WUHU216HW,2013-01-22 06:16:00,
2013-01-22 00:21:00,23.2,12.8,30.19,North,0,0.2,0.7,64,0.00,,,0.00,WUHU216HW,2013-01-22 06:21:00,
2013-01-22 00:26:00,23.2,12.8,30.19,North,0,0.0,0.7,64,0.00,,,0.00,WUHU216HW,2013-01-22 06:26:00,
2013-01-22 00:31:00,23.2,12.8,30.19,NNW,338,0.4,0.9,64,0.00,,,0.00,WUHU216HW,2013-01-22 06:31:00,
2013-01-22 00:36:00,23.2,12.8,30.19,NNE,23,0.7,1.1,64,0.00,,,0.00,WUHU216HW,2013-01-22 06:36:00,
2013-01-22 00:41:00,23.2,12.4,30.19,North,0,0.7,1.1,63,0.00,,,0.00,WUHU216HW,2013-01-22 06:41:00,
2013-01-22 00:46:00,23.2,12.4,30.18,North,0,0.1,0.7,63,0.00,,,0.00,WUHU216HW,2013-01-22 06:46:00,
2013-01-22 00:51:00,23.4,12.6,30.19,North,0,0.0,0.2,63,0.00,,,0.00,WUHU216HW,2013-01-22 06:51:00,
2013-01-22 00:56:00,23.2,12.4,30.19,North,0,0.4,1.1,63,0.00,,,0.00,WUHU216HW,2013-01-22 06:56:00,
2013-01-22 01:01:00,23.4,12.6,30.19,North,0,0.2,1.1,63,0.00,,,0.00,WUHU216HW,2013-01-22 07:01:00,
2013-01-22 01:06:00,23.2,12.4,30.19,North,0,0.2,0.2,63,0.00,,,0.00,WUHU216HW,2013-01-22 07:06:00,
2013-01-22 01:11:00,23.2,12.4,30.19,North,0,0.0,0.4,63,0.00,,,0.00,WUHU216HW,2013-01-22 07:11:00,
2013-01-22 01:16:00,23.0,12.2,30.19,North,0,0.0,0.4,63,0.00,,,0.00,WUHU216HW,2013-01-22 07:16:00,
2013-01-22 01:21:00,22.9,12.1,30.18,North,0,0.0,0.4,63,0.00,,,0.00,WUHU216HW,2013-01-22 07:21:00,
2013-01-22 01:26:00,22.7,11.9,30.18,North,0,0.0,0.0,63,0.00,,,0.00,WUHU216HW,2013-01-22 07:26:00,
2013-01-22 01:31:00,22.5,11.7,30.18,North,0,0.0,0.0,63,0.00,,,0.00,WUHU216HW,2013-01-22 07:31:00,
2013-01-22 01:36:00,22.5,11.7,30.19,North,0,0.0,0.0,63,0.00,,,0.00,WUHU216HW,2013-01-22 07:36:00,
2013-01-22 01:41:00,22.5,12.1,30.19,North,0,0.0,0.0,64,0.00,,,0.00,WUHU216HW,2013-01-22 07:41:00,
2013-01-22 01:46:00,22.5,11.7,30.19,North,0,0.0,0.0,63,0.00,,,0.00,WUHU216HW,2013-01-22 07:46:00,
2013-01-22 01:51:00,22.3,11.6,30.19,North,0,0.0,0.0,63,0.00,,,0.00,WUHU216HW,2013-01-22 07:51:00,
2013-01-22 01:56:00,22.3,11.6,30.18,North,0,0.0,0.0,63,0.00,,,0.00,WUHU216HW,2013-01-22 07:56:00,
2013-01-22 02:01:00,22.0,11.6,30.19,North,0,0.0,0.0,64,0.00,,,0.00,WUHU216HW,2013-01-22 08:01:00,
2013-01-22 02:06:00,22.0,11.6,30.19,North,0,0.0,0.0,64,0.00,,,0.00,WUHU216HW,2013-01-22 08:06:00,
2013-01-22 02:11:00,21.8,11.4,30.19,North,0,0.0,0.0,64,0.00,,,0.00,WUHU216HW,2013-01-22 08:11:00,
2013-01-22 02:16:00,21.6,11.3,30.19,North,0,0.0,0.0,64,0.00,,,0.00,WUHU216HW,2013-01-22 08:16:00,
2013-01-22 02:21:00,21.6,11.6,30.19,North,0,0.0,0.0,65,0.00,,,0.00,WUHU216HW,2013-01-22 08:21:00,
2013-01-22 02:26:00,21.4,11.1,30.19,North,0,0.0,0.0,64,0.00,,,0.00,WUHU216HW,2013-01-22 08:26:00,
2013-01-22 02:31:00,21.2,11.3,30.19,North,0,0.0,0.0,65,0.00,,,0.00,WUHU216HW,2013-01-22 08:31:00,
2013-01-22 02:36:00,21.2,11.3,30.19,North,0,0.0,0.0,65,0.00,,,0.00,WUHU216HW,2013-01-22 08:36:00,
2013-01-22 02:41:00,21.2,11.3,30.19,North,0,0.0,0.0,65,0.00,,,0.00,WUHU216HW,2013-01-22 08:41:00,
2013-01-22 02:46:00,21.2,12.2,30.18,ENE,68,0.0,0.0,68,0.00,,,0.00,WUHU216HW,2013-01-22 08:46:00,
2013-01-22 02:51:00,21.2,11.6,30.18,ENE,68,0.0,0.0,66,0.00,,,0.00,WUHU216HW,2013-01-22 08:51:00,
2013-01-22 02:56:00,21.6,12.2,30.18,ENE,68,0.0,0.0,67,0.00,,,0.00,WUHU216HW,2013-01-22 08:56:00,
2013-01-22 03:01:00,21.8,12.8,30.18,East,90,0.0,0.0,68,0.00,,,0.00,WUHU216HW,2013-01-22 09:01:00,
2013-01-22 03:06:00,22.0,12.2,30.19,East,90,0.0,0.0,66,0.00,,,0.00,WUHU216HW,2013-01-22 09:06:00,
2013-01-22 03:11:00,22.0,13.0,30.17,SE,135,0.1,0.2,68,0.00,,,0.00,WUHU216HW,2013-01-22 09:11:00,
2013-01-22 03:16:00,22.1,13.5,30.19,NNW,338,0.2,0.2,69,0.00,,,0.00,WUHU216HW,2013-01-22 09:16:00,
2013-01-22 03:21:00,22.1,13.9,30.18,ESE,113,0.2,0.2,70,0.00,,,0.00,WUHU216HW,2013-01-22 09:21:00,
2013-01-22 03:26:00,22.1,13.5,30.17,SE,135,0.0,0.2,69,0.00,,,0.00,WUHU216HW,2013-01-22 09:26:00,
2013-01-22 03:31:00,22.3,13.3,30.17,SE,135,0.0,0.4,68,0.00,,,0.00,WUHU216HW,2013-01-22 09:31:00,
2013-01-22 03:36:00,22.3,13.7,30.18,SE,135,0.0,0.4,69,0.00,,,0.00,WUHU216HW,2013-01-22 09:36:00,
2013-01-22 03:41:00,22.3,14.0,30.18,SE,135,0.0,0.0,70,0.00,,,0.00,WUHU216HW,2013-01-22 09:41:00,
2013-01-22 03:46:00,22.5,13.9,30.19,ESE,113,0.0,0.0,69,0.00,,,0.00,WUHU216HW,2013-01-22 09:46:00,
2013-01-22 03:51:00,22.3,13.7,30.19,North,0,0.0,0.2,69,0.00,,,0.00,WUHU216HW,2013-01-22 09:51:00,
2013-01-22 03:56:00,22.3,13.7,30.18,North,0,0.0,0.2,69,0.00,,,0.00,WUHU216HW,2013-01-22 09:56:00,
2013-01-22 04:01:00,22.5,13.9,30.19,North,0,0.0,0.0,69,0.00,,,0.00,WUHU216HW,2013-01-22 10:01:00,
2013-01-22 04:06:00,22.5,13.9,30.18,North,0,0.0,0.0,69,0.00,,,0.00,WUHU216HW,2013-01-22 10:06:00,
2013-01-22 04:11:00,22.5,13.9,30.17,NNE,23,0.0,0.0,69,0.00,,,0.00,WUHU216HW,2013-01-22 10:11:00,
2013-01-22 04:16:00,22.7,14.0,30.18,NNE,23,0.0,0.0,69,0.00,,,0.00,WUHU216HW,2013-01-22 10:16:00,
2013-01-22 04:21:00,22.7,14.0,30.18,NNE,23,0.2,0.2,69,0.00,,,0.00,WUHU216HW,2013-01-22 10:21:00,
2013-01-22 04:26:00,22.7,14.0,30.18,NNE,23,0.0,0.2,69,0.00,,,0.00,WUHU216HW,2013-01-22 10:26:00,
2013-01-22 04:31:00,22.7,13.7,30.19,NNE,23,0.0,0.0,68,0.00,,,0.00,WUHU216HW,2013-01-22 10:31:00,
2013-01-22 04:36:00,22.9,14.2,30.19,NNE,23,0.0,0.0,69,0.00,,,0.00,WUHU216HW,2013-01-22 10:36:00,
2013-01-22 04:41:00,22.9,13.9,30.19,NNE,23,0.0,0.0,68,0.00,,,0.00,WUHU216HW,2013-01-22 10:41:00,
2013-01-22 04:46:00,22.9,14.2,30.19,NNE,23,0.0,0.0,69,0.00,,,0.00,WUHU216HW,2013-01-22 10:46:00,
2013-01-22 04:51:00,22.9,13.9,30.19,NNE,23,0.0,0.0,68,0.00,,,0.00,WUHU216HW,2013-01-22 10:51:00,
2013-01-22 04:56:00,22.9,14.2,30.19,NNE,23,0.0,0.0,69,0.00,,,0.00,WUHU216HW,2013-01-22 10:56:00,
2013-01-22 05:01:00,22.9,13.9,30.18,NNE,23,0.0,0.0,68,0.00,,,0.00,WUHU216HW,2013-01-22 11:01:00,
2013-01-22 05:06:00,22.9,13.9,30.19,NNE,23,0.0,0.0,68,0.00,,,0.00,WUHU216HW,2013-01-22 11:06:00,
2013-01-22 05:11:00,22.7,13.7,30.19,NNE,23,0.0,0.0,68,0.00,,,0.00,WUHU216HW,2013-01-22 11:11:00,
2013-01-22 05:16:00,22.7,13.7,30.18,NNE,23,0.2,0.2,68,0.00,,,0.00,WUHU216HW,2013-01-22 11:16:00,
2013-01-22 05:21:00,22.7,14.0,30.18,East,90,0.1,0.2,69,0.00,,,0.00,WUHU216HW,2013-01-22 11:21:00,
2013-01-22 05:26:00,22.7,13.7,30.18,East,90,0.0,0.2,68,0.00,,,0.00,WUHU216HW,2013-01-22 11:26:00,
2013-01-22 05:31:00,22.5,13.9,30.18,East,90,0.0,0.0,69,0.00,,,0.00,WUHU216HW,2013-01-22 11:31:00,
2013-01-22 05:36:00,22.3,13.7,30.17,East,90,0.0,0.0,69,0.00,,,0.00,WUHU216HW,2013-01-22 11:36:00,
2013-01-22 05:41:00,22.1,13.5,30.18,East,90,0.0,0.0,69,0.00,,,0.00,WUHU216HW,2013-01-22 11:41:00,
2013-01-22 05:46:00,22.0,13.0,30.18,East,90,0.0,0.0,68,0.00,,,0.00,WUHU216HW,2013-01-22 11:46:00,
2013-01-22 05:51:00,21.8,12.4,30.18,East,90,0.0,0.0,67,0.00,,,0.00,WUHU216HW,2013-01-22 11:51:00,
2013-01-22 05:56:00,21.6,12.6,30.18,East,90,0.0,0.0,68,0.00,,,0.00,WUHU216HW,2013-01-22 11:56:00,
2013-01-22 06:01:00,21.6,12.6,30.18,East,90,0.0,0.0,68,0.00,,,0.00,WUHU216HW,2013-01-22 12:01:00,
2013-01-22 06:06:00,21.4,12.4,30.19,East,90,0.0,0.0,68,0.00,,,0.00,WUHU216HW,2013-01-22 12:06:00,
2013-01-22 06:11:00,21.2,12.2,30.19,East,90,0.0,0.0,68,0.00,,,0.00,WUHU216HW,2013-01-22 12:11:00,
2013-01-22 06:16:00,21.2,12.2,30.19,East,90,0.0,0.0,68,0.00,,,0.00,WUHU216HW,2013-01-22 12:16:00,
2013-01-22 06:21:00,21.1,12.4,30.19,East,90,0.0,0.0,69,0.00,,,0.00,WUHU216HW,2013-01-22 12:21:00,
2013-01-22 06:26:00,20.9,12.6,30.19,East,90,0.0,0.0,70,0.00,,,0.00,WUHU216HW,2013-01-22 12:26:00,
2013-01-22 06:31:00,20.7,12.1,30.20,East,90,0.0,0.0,69,0.00,,,0.00,WUHU216HW,2013-01-22 12:31:00,
2013-01-22 06:36:00,20.7,12.1,30.20,East,90,0.0,0.0,69,0.00,,,0.00,WUHU216HW,2013-01-22 12:36:00,
2013-01-22 06:41:00,20.5,11.9,30.20,East,90,0.0,0.0,69,0.00,,,0.00,WUHU216HW,2013-01-22 12:41:00,
2013-01-22 06:46:00,20.5,11.9,30.20,East,90,0.0,0.0,69,0.00,,,0.00,WUHU216HW,2013-01-22 12:46:00,
2013-01-22 06:51:00,20.3,11.7,30.20,East,90,0.0,0.0,69,0.00,,,0.00,WUHU216HW,2013-01-22 12:51:00,
2013-01-22 06:56:00,20.3,12.1,30.20,ESE,113,0.1,0.2,70,0.00,,,0.00,WUHU216HW,2013-01-22 12:56:00,
2013-01-22 07:01:00,20.3,12.3,30.21,ESE,113,0.2,0.4,71,0.00,,,0.00,WUHU216HW,2013-01-22 13:01:00,
2013-01-22 07:06:00,20.5,12.5,30.20,ESE,113,0.2,0.4,71,0.00,,,0.00,WUHU216HW,2013-01-22 13:06:00,
2013-01-22 07:11:00,20.5,12.9,30.20,ESE,113,0.0,0.2,72,0.00,,,0.00,WUHU216HW,2013-01-22 13:11:00,
2013-01-22 07:16:00,20.5,12.5,30.20,ESE,113,0.4,0.4,71,0.00,,,0.00,WUHU216HW,2013-01-22 13:16:00,
2013-01-22 07:21:00,20.5,12.5,30.20,ESE,113,0.0,0.4,71,0.00,,,0.00,WUHU216HW,2013-01-22 13:21:00,
2013-01-22 07:26:00,20.5,12.5,30.20,ESE,113,0.6,1.1,71,0.00,,,0.00,WUHU216HW,2013-01-22 13:26:00,
2013-01-22 07:31:00,20.5,12.5,30.19,ESE,113,0.1,1.1,71,0.00,,,0.00,WUHU216HW,2013-01-22 13:31:00,
2013-01-22 07:36:00,20.7,12.7,30.20,ESE,113,0.2,1.6,71,0.00,,,0.00,WUHU216HW,2013-01-22 13:36:00,
2013-01-22 07:41:00,20.9,12.9,30.20,ESE,113,1.1,1.6,71,0.00,,,0.00,WUHU216HW,2013-01-22 13:41:00,
2013-01-22 07:46:00,20.9,12.6,30.20,SE,128,0.3,1.1,70,0.00,,,0.00,WUHU216HW,2013-01-22 13:46:00,
2013-01-22 07:51:00,21.1,12.4,30.20,SE,135,0.7,1.1,69,0.00,,,0.00,WUHU216HW,2013-01-22 13:51:00,
2013-01-22 07:56:00,21.2,13.0,30.20,East,90,1.3,1.3,70,0.00,,,0.00,WUHU216HW,2013-01-22 13:56:00,
2013-01-22 08:01:00,21.4,13.1,30.20,ESE,113,1.1,1.3,70,0.00,,,0.00,WUHU216HW,2013-01-22 14:01:00,
2013-01-22 08:06:00,21.6,13.0,30.20,SE,128,0.6,1.3,69,0.00,,,0.00,WUHU216HW,2013-01-22 14:06:00,
2013-01-22 08:11:00,21.8,13.1,30.20,ESE,113,1.1,1.8,69,0.00,,,0.00,WUHU216HW,2013-01-22 14:11:00,
2013-01-22 08:16:00,22.0,13.3,30.20,ESE,120,0.3,1.8,69,0.00,,,0.00,WUHU216HW,2013-01-22 14:16:00,
2013-01-22 08:21:00,22.1,13.5,30.20,East,99,1.4,2.5,69,0.00,,,0.00,WUHU216HW,2013-01-22 14:21:00,
2013-01-22 08:26:00,22.3,13.7,30.20,ESE,113,0.7,2.5,69,0.00,,,0.00,WUHU216HW,2013-01-22 14:26:00,
2013-01-22 08:31:00,22.7,14.0,30.20,East,84,1.5,1.8,69,0.00,,,0.00,WUHU216HW,2013-01-22 14:31:00,
2013-01-22 08:36:00,23.4,14.8,30.20,SE,135,0.9,1.8,69,0.00,,,0.00,WUHU216HW,2013-01-22 14:36:00,
2013-01-22 08:41:00,24.5,15.0,30.20,ESE,113,0.9,1.6,67,0.00,,,0.00,WUHU216HW,2013-01-22 14:41:00,
2013-01-22 08:46:00,25.2,14.7,30.20,ESE,113,0.6,3.6,64,0.00,,,0.00,WUHU216HW,2013-01-22 14:46:00,
2013-01-22 08:51:00,25.6,14.3,30.20,SE,135,1.8,4.7,62,0.00,,,0.00,WUHU216HW,2013-01-22 14:51:00,
2013-01-22 08:56:00,25.9,14.7,30.20,ESE,123,1.0,4.7,62,0.00,,,0.00,WUHU216HW,2013-01-22 14:56:00,
2013-01-22 09:01:00,27.2,14.7,30.21,SE,140,1.2,2.9,59,0.00,,,0.00,WUHU216HW,2013-01-22 15:01:00,
2013-01-22 09:06:00,27.5,15.0,30.20,ENE,68,2.0,2.7,59,0.00,,,0.00,WUHU216HW,2013-01-22 15:06:00,
2013-01-22 09:11:00,27.9,15.0,30.19,SSE,158,2.7,2.7,58,0.00,,,0.00,WUHU216HW,2013-01-22 15:11:00,
2013-01-22 09:16:00,27.9,14.6,30.19,ESE,113,0.4,2.7,57,0.00,,,0.00,WUHU216HW,2013-01-22 15:16:00,
2013-01-22 09:21:00,28.1,15.2,30.20,East,92,2.2,2.7,58,0.00,,,0.00,WUHU216HW,2013-01-22 15:21:00,
2013-01-22 09:26:00,28.4,14.8,30.20,SSE,158,2.9,3.8,56,0.00,,,0.00,WUHU216HW,2013-01-22 15:26:00,
2013-01-22 09:31:00,28.4,14.8,30.19,SE,135,0.7,3.8,56,0.00,,,0.00,WUHU216HW,2013-01-22 15:31:00,
2013-01-22 09:36:00,29.2,15.4,30.19,SSE,158,1.8,2.5,56,0.00,,,0.00,WUHU216HW,2013-01-22 15:36:00,
2013-01-22 09:41:00,30.1,15.8,30.20,SE,135,2.5,2.5,55,0.00,,,0.00,WUHU216HW,2013-01-22 15:41:00,
2013-01-22 09:46:00,30.8,15.2,30.20,SE,124,2.3,3.6,52,0.00,,,0.00,WUHU216HW,2013-01-22 15:46:00,
2013-01-22 09:51:00,31.1,15.5,30.21,ENE,68,2.2,3.8,52,0.00,,,0.00,WUHU216HW,2013-01-22 15:51:00,
2013-01-22 09:56:00,30.4,14.9,30.21,SSE,158,1.8,3.8,52,0.00,,,0.00,WUHU216HW,2013-01-22 15:56:00,
2013-01-22 10:01:00,29.9,14.8,30.21,South,183,0.6,2.7,53,0.00,,,0.00,WUHU216HW,2013-01-22 16:01:00,
2013-01-22 10:06:00,30.1,15.4,30.21,ENE,68,0.4,2.7,54,0.00,,,0.00,WUHU216HW,2013-01-22 16:06:00,
2013-01-22 10:11:00,30.2,15.5,30.22,East,89,2.3,3.4,54,0.00,,,0.00,WUHU216HW,2013-01-22 16:11:00,
2013-01-22 10:16:00,30.2,15.1,30.22,ESE,117,1.1,3.4,53,0.00,,,0.00,WUHU216HW,2013-01-22 16:16:00,
2013-01-22 10:21:00,30.2,15.1,30.22,SE,135,3.4,3.4,53,0.00,,,0.00,WUHU216HW,2013-01-22 16:21:00,
2013-01-22 10:26:00,29.9,14.8,30.22,ESE,113,0.4,3.4,53,0.00,,,0.00,WUHU216HW,2013-01-22 16:26:00,
2013-01-22 10:31:00,29.9,15.2,30.22,East,90,2.5,2.5,54,0.00,,,0.00,WUHU216HW,2013-01-22 16:31:00,
2013-01-22 10:36:00,29.5,14.5,30.22,ESE,113,4.0,4.0,53,0.00,,,0.00,WUHU216HW,2013-01-22 16:36:00,
2013-01-22 10:41:00,29.5,14.9,30.22,ESE,113,2.2,4.0,54,0.00,,,0.00,WUHU216HW,2013-01-22 16:41:00,
2013-01-22 10:46:00,29.7,15.0,30.22,SE,135,1.3,2.5,54,0.00,,,0.00,WUHU216HW,2013-01-22 16:46:00,
2013-01-22 10:51:00,29.9,15.2,30.22,ESE,113,2.5,2.5,54,0.00,,,0.00,WUHU216HW,2013-01-22 16:51:00,
2013-01-22 10:56:00,29.7,15.0,30.22,East,90,1.8,3.4,54,0.00,,,0.00,WUHU216HW,2013-01-22 16:56:00,
2013-01-22 11:01:00,29.7,15.0,30.23,East,90,2.9,3.4,54,0.00,,,0.00,WUHU216HW,2013-01-22 17:01:00,
2013-01-22 11:06:00,29.9,15.2,30.23,ESE,113,1.3,2.9,54,0.00,,,0.00,WUHU216HW,2013-01-22 17:06:00,
2013-01-22 11:11:00,30.1,14.9,30.24,ENE,71,0.8,2.5,53,0.00,,,0.00,WUHU216HW,2013-01-22 17:11:00,
2013-01-22 11:16:00,29.5,14.0,30.23,NE,45,2.2,2.5,52,0.00,,,0.00,WUHU216HW,2013-01-22 17:16:00,
2013-01-22 11:21:00,29.5,14.0,30.23,SE,135,0.9,3.8,52,0.00,,,0.00,WUHU216HW,2013-01-22 17:21:00,
2013-01-22 11:26:00,29.5,14.5,30.22,ESE,113,2.2,3.8,53,0.00,,,0.00,WUHU216HW,2013-01-22 17:26:00,
2013-01-22 11:31:00,29.9,14.8,30.23,SE,135,3.1,3.1,53,0.00,,,0.00,WUHU216HW,2013-01-22 17:31:00,
2013-01-22 11:36:00,30.1,15.4,30.22,SSE,149,1.2,3.1,54,0.00,,,0.00,WUHU216HW,2013-01-22 17:36:00,
2013-01-22 11:41:00,30.6,15.0,30.22,SSE,158,1.1,2.7,52,0.00,,,0.00,WUHU216HW,2013-01-22 17:41:00,
2013-01-22 11:46:00,30.8,15.2,30.22,ENE,68,2.9,2.9,52,0.00,,,0.00,WUHU216HW,2013-01-22 17:46:00,
2013-01-22 11:51:00,30.6,15.0,30.21,SE,142,0.6,4.0,52,0.00,,,0.00,WUHU216HW,2013-01-22 17:51:00,
2013-01-22 11:56:00,31.1,15.5,30.21,East,90,2.0,4.0,52,0.00,,,0.00,WUHU216HW,2013-01-22 17:56:00,
2013-01-22 12:01:00,31.3,15.7,30.20,ESE,113,3.8,4.0,52,0.00,,,0.00,WUHU216HW,2013-01-22 18:01:00,
2013-01-22 12:06:00,31.3,15.7,30.20,ESE,113,3.7,4.0,52,0.00,,,0.00,WUHU216HW,2013-01-22 18:06:00,
2013-01-22 12:11:00,31.7,16.0,30.19,ESE,120,1.7,4.0,52,0.00,,,0.00,WUHU216HW,2013-01-22 18:11:00,
2013-01-22 12:16:00,31.7,16.0,30.19,SE,135,2.5,2.5,52,0.00,,,0.00,WUHU216HW,2013-01-22 18:16:00,
2013-01-22 12:21:00,31.7,16.0,30.19,ESE,107,1.5,2.7,52,0.00,,,0.00,WUHU216HW,2013-01-22 18:21:00,
2013-01-22 12:26:00,32.0,16.4,30.19,ESE,113,2.5,3.4,52,0.00,,,0.00,WUHU216HW,2013-01-22 18:26:00,
2013-01-22 12:31:00,32.0,15.9,30.19,SSE,160,1.0,4.3,51,0.00,,,0.00,WUHU216HW,2013-01-22 18:31:00,
2013-01-22 12:36:00,32.0,16.4,30.18,ESE,113,1.8,4.3,52,0.00,,,0.00,WUHU216HW,2013-01-22 18:36:00,
2013-01-22 12:41:00,32.2,16.5,30.18,ESE,113,1.1,2.7,52,0.00,,,0.00,WUHU216HW,2013-01-22 18:41:00,
2013-01-22 12:46:00,32.4,16.7,30.18,SSE,158,1.8,2.7,52,0.00,,,0.00,WUHU216HW,2013-01-22 18:46:00,
2013-01-22 12:51:00,32.6,16.4,30.18,SE,135,1.1,2.2,51,0.00,,,0.00,WUHU216HW,2013-01-22 18:51:00,
2013-01-22 12:56:00,32.8,17.0,30.17,ESE,113,1.1,1.8,52,0.00,,,0.00,WUHU216HW,2013-01-22 18:56:00,
2013-01-22 13:01:00,32.6,16.4,30.17,ESE,113,2.4,2.5,51,0.00,,,0.00,WUHU216HW,2013-01-22 19:01:00,
2013-01-22 13:06:00,32.6,16.8,30.17,East,90,1.6,2.9,52,0.00,,,0.00,WUHU216HW,2013-01-22 19:06:00,
2013-01-22 13:11:00,32.6,16.8,30.17,SE,129,1.4,3.4,52,0.00,,,0.00,WUHU216HW,2013-01-22 19:11:00,
2013-01-22 13:16:00,32.6,16.8,30.17,SSE,151,0.6,3.4,52,0.00,,,0.00,WUHU216HW,2013-01-22 19:16:00,
2013-01-22 13:21:00,32.8,17.0,30.17,SE,135,1.6,1.8,52,0.00,,,0.00,WUHU216HW,2013-01-22 19:21:00,
2013-01-22 13:26:00,32.6,16.8,30.16,SE,135,0.7,1.8,52,0.00,,,0.00,WUHU216HW,2013-01-22 19:26:00,
2013-01-22 13:31:00,32.8,17.0,30.16,SE,135,2.5,3.6,52,0.00,,,0.00,WUHU216HW,2013-01-22 19:31:00,
2013-01-22 13:36:00,32.8,16.6,30.16,SE,135,2.5,3.6,51,0.00,,,0.00,WUHU216HW,2013-01-22 19:36:00,
2013-01-22 13:41:00,32.8,17.0,30.16,ESE,122,1.5,2.5,52,0.00,,,0.00,WUHU216HW,2013-01-22 19:41:00,
2013-01-22 13:46:00,33.1,17.3,30.16,SE,132,1.3,2.2,52,0.00,,,0.00,WUHU216HW,2013-01-22 19:46:00,
2013-01-22 13:51:00,33.1,17.3,30.15,ENE,68,0.7,2.2,52,0.00,,,0.00,WUHU216HW,2013-01-22 19:51:00,
2013-01-22 13:56:00,33.3,17.5,30.15,SE,135,0.2,3.8,52,0.00,,,0.00,WUHU216HW,2013-01-22 19:56:00,
2013-01-22 14:01:00,33.5,17.2,30.15,ESE,113,1.6,3.8,51,0.00,,,0.00,WUHU216HW,2013-01-22 20:01:00,
2013-01-22 14:06:00,33.7,17.8,30.15,East,90,1.8,2.7,52,0.00,,,0.00,WUHU216HW,2013-01-22 20:06:00,
2013-01-22 14:12:00,33.8,17.6,30.15,ESE,113,0.6,2.7,51,0.00,,,0.00,WUHU216HW,2013-01-22 20:12:00,
2013-01-22 14:17:00,33.5,16.7,30.15,SSE,158,2.7,2.7,50,0.00,,,0.00,WUHU216HW,2013-01-22 20:17:00,
2013-01-22 14:22:00,33.3,17.0,30.15,ESE,116,1.3,2.7,51,0.00,,,0.00,WUHU216HW,2013-01-22 20:22:00,
2013-01-22 14:27:00,33.5,17.6,30.14,East,90,2.0,2.5,52,0.00,,,0.00,WUHU216HW,2013-01-22 20:27:00,
2013-01-22 14:32:00,33.5,17.2,30.15,ESE,113,3.1,3.1,51,0.00,,,0.00,WUHU216HW,2013-01-22 20:32:00,
2013-01-22 14:37:00,33.7,17.4,30.15,SE,135,0.4,3.1,51,0.00,,,0.00,WUHU216HW,2013-01-22 20:37:00,
2013-01-22 14:42:00,33.8,17.6,30.15,SE,135,1.8,2.5,51,0.00,,,0.00,WUHU216HW,2013-01-22 20:42:00,
2013-01-22 14:47:00,33.7,17.4,30.15,SE,126,1.6,2.0,51,0.00,,,0.00,WUHU216HW,2013-01-22 20:47:00,
2013-01-22 14:52:00,33.8,18.0,30.14,SE,135,1.8,2.0,52,0.00,,,0.00,WUHU216HW,2013-01-22 20:52:00,
2013-01-22 14:57:00,34.0,18.2,30.14,ESE,104,2.2,2.7,52,0.00,,,0.00,WUHU216HW,2013-01-22 20:57:00,
2013-01-22 15:02:00,34.2,18.4,30.14,SE,135,1.2,2.7,52,0.00,,,0.00,WUHU216HW,2013-01-22 21:02:00,
2013-01-22 15:07:00,34.2,18.4,30.14,SE,135,1.0,2.5,52,0.00,,,0.00,WUHU216HW,2013-01-22 21:07:00,
2013-01-22 15:12:00,34.2,17.9,30.14,East,90,0.9,2.5,51,0.00,,,0.00,WUHU216HW,2013-01-22 21:12:00,
2013-01-22 15:17:00,34.2,17.9,30.14,SSE,154,1.5,2.5,51,0.00,,,0.00,WUHU216HW,2013-01-22 21:17:00,
2013-01-22 15:22:00,34.2,18.4,30.14,South,180,1.1,2.5,52,0.00,,,0.00,WUHU216HW,2013-01-22 21:22:00,
2013-01-22 15:27:00,34.4,18.1,30.14,SE,146,1.9,3.8,51,0.00,,,0.00,WUHU216HW,2013-01-22 21:27:00,
2013-01-22 15:31:00,34.4,18.1,30.14,SE,127,0.6,3.8,51,0.00,,,0.00,WUHU216HW,2013-01-22 21:31:00,
2013-01-22 15:36:00,34.6,18.3,30.14,SSE,158,1.1,2.5,51,0.00,,,0.00,WUHU216HW,2013-01-22 21:36:00,
2013-01-22 15:41:00,34.9,18.6,30.14,SSE,158,1.3,2.5,51,0.00,,,0.00,WUHU216HW,2013-01-22 21:41:00,
2013-01-22 15:46:00,34.9,18.6,30.14,SSE,158,3.1,3.1,51,0.00,,,0.00,WUHU216HW,2013-01-22 21:46:00,
2013-01-22 15:51:00,34.6,18.3,30.13,SE,135,1.1,3.1,51,0.00,,,0.00,WUHU216HW,2013-01-22 21:51:00,
2013-01-22 15:56:00,34.6,18.7,30.13,SSE,158,0.7,2.7,52,0.00,,,0.00,WUHU216HW,2013-01-22 21:56:00,
2013-01-22 16:01:00,34.6,18.7,30.13,East,90,1.6,2.7,52,0.00,,,0.00,WUHU216HW,2013-01-22 22:01:00,
2013-01-22 16:07:00,34.9,18.6,30.13,ESE,113,2.5,2.9,51,0.00,,,0.00,WUHU216HW,2013-01-22 22:07:00,
2013-01-22 16:12:00,35.1,18.8,30.13,ESE,113,2.7,2.9,51,0.00,,,0.00,WUHU216HW,2013-01-22 22:12:00,
2013-01-22 16:17:00,35.3,19.0,30.12,SE,135,1.1,4.5,51,0.00,,,0.00,WUHU216HW,2013-01-22 22:17:00,
2013-01-22 16:22:00,35.6,19.4,30.13,ESE,123,1.5,4.5,51,0.00,,,0.00,WUHU216HW,2013-01-22 22:22:00,
2013-01-22 16:27:00,35.3,18.5,30.12,SSE,158,2.9,3.4,50,0.00,,,0.00,WUHU216HW,2013-01-22 22:27:00,
2013-01-22 16:32:00,34.9,18.6,30.12,ESE,113,0.4,3.4,51,0.00,,,0.00,WUHU216HW,2013-01-22 22:32:00,
2013-01-22 16:37:00,34.9,18.6,30.12,SSE,164,0.8,4.0,51,0.00,,,0.00,WUHU216HW,2013-01-22 22:37:00,
2013-01-22 16:42:00,34.7,18.5,30.11,SE,135,1.5,4.0,51,0.00,,,0.00,WUHU216HW,2013-01-22 22:42:00,
2013-01-22 16:47:00,34.7,18.9,30.11,SE,135,1.1,3.4,52,0.00,,,0.00,WUHU216HW,2013-01-22 22:47:00,
2013-01-22 16:52:00,34.6,18.7,30.11,ESE,117,0.4,1.8,52,0.00,,,0.00,WUHU216HW,2013-01-22 22:52:00,
2013-01-22 16:57:00,34.2,18.4,30.12,SE,143,0.6,2.7,52,0.00,,,0.00,WUHU216HW,2013-01-22 22:57:00,
2013-01-22 17:02:00,33.8,18.4,30.12,ESE,113,1.5,2.7,53,0.00,,,0.00,WUHU216HW,2013-01-22 23:02:00,
2013-01-22 17:07:00,33.5,18.1,30.12,ESE,113,0.2,2.2,53,0.00,,,0.00,WUHU216HW,2013-01-22 23:07:00,
2013-01-22 17:12:00,32.9,18.0,30.12,ESE,113,0.0,1.6,54,0.00,,,0.00,WUHU216HW,2013-01-22 23:12:00,
2013-01-22 17:17:00,32.6,18.1,30.12,SE,135,0.4,1.8,55,0.00,,,0.00,WUHU216HW,2013-01-22 23:17:00,
2013-01-22 17:23:00,32.4,18.4,30.12,ESE,113,0.3,1.8,56,0.00,,,0.00,WUHU216HW,2013-01-22 23:23:00,
2013-01-22 17:28:00,32.2,18.3,30.12,ESE,113,0.4,0.7,56,0.00,,,0.00,WUHU216HW,2013-01-22 23:28:00,
2013-01-22 17:33:00,32.0,17.6,30.13,ESE,113,0.3,0.4,55,0.00,,,0.00,WUHU216HW,2013-01-22 23:33:00,
2013-01-22 17:38:00,31.7,17.3,30.13,ESE,113,0.0,0.4,55,0.00,,,0.00,WUHU216HW,2013-01-22 23:38:00,
2013-01-22 17:43:00,31.3,17.4,30.13,ESE,113,0.0,0.4,56,0.00,,,0.00,WUHU216HW,2013-01-22 23:43:00,
2013-01-22 17:48:00,31.0,17.0,30.12,ESE,113,0.2,0.2,56,0.00,,,0.00,WUHU216HW,2013-01-22 23:48:00,
2013-01-22 17:53:00,30.6,17.6,30.12,ESE,113,0.4,0.4,58,0.00,,,0.00,WUHU216HW,2013-01-22 23:53:00,
2013-01-22 17:58:00,30.4,17.4,30.12,ESE,113,0.3,0.9,58,0.00,,,0.00,WUHU216HW,2013-01-22 23:58:00,
2013-01-22 18:03:00,30.2,17.6,30.12,ESE,113,0.7,0.9,59,0.00,,,0.00,WUHU216HW,2013-01-23 00:03:00,
2013-01-22 18:08:00,29.9,17.6,30.12,ESE,113,0.4,0.7,60,0.00,,,0.00,WUHU216HW,2013-01-23 00:08:00,
2013-01-22 18:13:00,29.9,17.6,30.11,ESE,113,0.4,0.7,60,0.00,,,0.00,WUHU216HW,2013-01-23 00:13:00,
2013-01-22 18:18:00,29.7,17.9,30.12,ESE,113,0.4,0.4,61,0.00,,,0.00,WUHU216HW,2013-01-23 00:18:00,
2013-01-22 18:23:00,29.5,17.4,30.12,ESE,113,0.4,0.9,60,0.00,,,0.00,WUHU216HW,2013-01-23 00:23:00,
2013-01-22 18:28:00,29.3,17.6,30.12,ESE,113,0.4,0.9,61,0.00,,,0.00,WUHU216HW,2013-01-23 00:28:00,
2013-01-22 18:33:00,29.2,17.4,30.12,SE,135,0.2,0.9,61,0.00,,,0.00,WUHU216HW,2013-01-23 00:33:00,
2013-01-22 18:38:00,29.2,17.4,30.12,East,79,0.8,1.1,61,0.00,,,0.00,WUHU216HW,2013-01-23 00:38:00,
2013-01-22 18:43:00,29.0,17.6,30.12,ESE,113,1.1,1.1,62,0.00,,,0.00,WUHU216HW,2013-01-23 00:43:00,
2013-01-22 18:48:00,29.0,17.6,30.12,ESE,113,1.1,1.1,62,0.00,,,0.00,WUHU216HW,2013-01-23 00:48:00,
2013-01-22 18:53:00,28.8,17.5,30.12,ESE,113,0.8,1.1,62,0.00,,,0.00,WUHU216HW,2013-01-23 00:53:00,
2013-01-22 18:58:00,28.6,17.3,30.12,ESE,113,0.6,1.1,62,0.00,,,0.00,WUHU216HW,2013-01-23 00:58:00,
2013-01-22 19:03:00,28.4,17.1,30.11,ESE,113,0.9,0.9,62,0.00,,,0.00,WUHU216HW,2013-01-23 01:03:00,
2013-01-22 19:08:00,28.4,17.1,30.11,SE,135,0.0,0.9,62,0.00,,,0.00,WUHU216HW,2013-01-23 01:08:00,
2013-01-22 19:13:00,28.3,16.9,30.11,ESE,113,0.2,0.4,62,0.00,,,0.00,WUHU216HW,2013-01-23 01:13:00,
2013-01-22 19:18:00,28.3,16.9,30.12,East,90,0.4,0.4,62,0.00,,,0.00,WUHU216HW,2013-01-23 01:18:00,
2013-01-22 19:23:00,27.9,16.6,30.12,ESE,113,0.0,0.4,62,0.00,,,0.00,WUHU216HW,2013-01-23 01:23:00,
2013-01-22 19:28:00,27.7,16.4,30.12,ESE,113,0.0,0.4,62,0.00,,,0.00,WUHU216HW,2013-01-23 01:28:00,
2013-01-22 19:33:00,27.7,16.7,30.11,ESE,113,0.0,0.0,63,0.00,,,0.00,WUHU216HW,2013-01-23 01:33:00,
2013-01-22 19:38:00,27.7,16.7,30.11,ESE,113,0.0,0.0,63,0.00,,,0.00,WUHU216HW,2013-01-23 01:38:00,
2013-01-22 19:43:00,27.5,16.6,30.12,ESE,113,0.2,0.2,63,0.00,,,0.00,WUHU216HW,2013-01-23 01:43:00,
2013-01-22 19:48:00,27.4,16.7,30.12,ESE,113,0.6,0.7,64,0.00,,,0.00,WUHU216HW,2013-01-23 01:48:00,
2013-01-22 19:53:00,27.2,16.6,30.12,ESE,113,0.1,0.7,64,0.00,,,0.00,WUHU216HW,2013-01-23 01:53:00,
2013-01-22 19:58:00,27.0,16.0,30.12,ESE,113,0.0,0.4,63,0.00,,,0.00,WUHU216HW,2013-01-23 01:58:00,
2013-01-22 20:03:00,27.0,16.4,30.12,ESE,113,0.0,0.2,64,0.00,,,0.00,WUHU216HW,2013-01-23 02:03:00,
2013-01-22 20:08:00,26.8,16.6,30.12,SE,135,0.4,0.4,65,0.00,,,0.00,WUHU216HW,2013-01-23 02:08:00,
2013-01-22 20:13:00,27.0,16.7,30.12,ESE,113,0.4,0.4,65,0.00,,,0.00,WUHU216HW,2013-01-23 02:13:00,
2013-01-22 20:18:00,26.8,16.6,30.12,ESE,113,0.2,0.4,65,0.00,,,0.00,WUHU216HW,2013-01-23 02:18:00,
2013-01-22 20:23:00,26.6,16.0,30.12,East,90,0.1,0.4,64,0.00,,,0.00,WUHU216HW,2013-01-23 02:23:00,
2013-01-22 20:28:00,26.5,15.8,30.12,ESE,113,0.0,0.4,64,0.00,,,0.00,WUHU216HW,2013-01-23 02:28:00,
2013-01-22 20:33:00,26.3,16.0,30.12,ESE,113,0.0,0.4,65,0.00,,,0.00,WUHU216HW,2013-01-23 02:33:00,
2013-01-22 20:38:00,26.3,16.4,30.12,ESE,113,0.0,0.2,66,0.00,,,0.00,WUHU216HW,2013-01-23 02:38:00,
2013-01-22 20:43:00,26.3,16.0,30.12,ESE,113,0.0,0.4,65,0.00,,,0.00,WUHU216HW,2013-01-23 02:43:00,
2013-01-22 20:48:00,26.3,16.4,30.12,SE,135,0.2,0.4,66,0.00,,,0.00,WUHU216HW,2013-01-23 02:48:00,
2013-01-22 20:53:00,26.3,16.0,30.12,ESE,113,0.0,0.2,65,0.00,,,0.00,WUHU216HW,2013-01-23 02:53:00,
2013-01-22 20:58:00,26.1,16.2,30.12,SE,135,0.0,0.2,66,0.00,,,0.00,WUHU216HW,2013-01-23 02:58:00,
2013-01-22 21:03:00,26.3,16.4,30.12,SE,135,0.0,0.2,66,0.00,,,0.00,WUHU216HW,2013-01-23 03:03:00,
2013-01-22 21:08:00,26.3,16.0,30.12,ESE,113,0.0,0.2,65,0.00,,,0.00,WUHU216HW,2013-01-23 03:08:00,
2013-01-22 21:13:00,25.9,15.3,30.13,ESE,113,0.0,0.2,64,0.00,,,0.00,WUHU216HW,2013-01-23 03:13:00,
2013-01-22 21:18:00,25.7,15.8,30.12,ESE,113,0.0,0.2,66,0.00,,,0.00,WUHU216HW,2013-01-23 03:18:00,
2013-01-22 21:23:00,25.7,16.6,30.12,ESE,113,0.2,0.2,68,0.00,,,0.00,WUHU216HW,2013-01-23 03:23:00,
2013-01-22 21:28:00,25.9,16.4,30.12,SE,135,0.0,0.2,67,0.00,,,0.00,WUHU216HW,2013-01-23 03:28:00,
2013-01-22 21:33:00,25.9,16.4,30.12,ESE,113,0.2,0.2,67,0.00,,,0.00,WUHU216HW,2013-01-23 03:33:00,
2013-01-22 21:38:00,25.7,16.6,30.12,ESE,113,0.0,0.4,68,0.00,,,0.00,WUHU216HW,2013-01-23 03:38:00,
2013-01-22 21:43:00,25.7,16.6,30.12,SE,135,0.0,0.4,68,0.00,,,0.00,WUHU216HW,2013-01-23 03:43:00,
2013-01-22 21:48:00,25.6,16.0,30.12,SE,135,0.0,0.2,67,0.00,,,0.00,WUHU216HW,2013-01-23 03:48:00,
2013-01-22 21:53:00,25.6,15.7,30.13,SE,135,0.0,0.2,66,0.00,,,0.00,WUHU216HW,2013-01-23 03:53:00,
2013-01-22 21:58:00,25.4,15.6,30.13,SE,135,0.0,0.2,66,0.00,,,0.00,WUHU216HW,2013-01-23 03:58:00,
2013-01-22 22:03:00,25.2,15.4,30.13,SE,135,0.0,0.2,66,0.00,,,0.00,WUHU216HW,2013-01-23 04:03:00,
2013-01-22 22:08:00,24.8,15.4,30.13,SE,135,0.0,0.0,67,0.00,,,0.00,WUHU216HW,2013-01-23 04:08:00,
2013-01-22 22:13:00,24.8,15.0,30.13,SE,135,0.0,0.0,66,0.00,,,0.00,WUHU216HW,2013-01-23 04:13:00,
2013-01-22 22:18:00,24.8,15.0,30.13,SE,135,0.0,0.0,66,0.00,,,0.00,WUHU216HW,2013-01-23 04:18:00,
2013-01-22 22:23:00,24.7,15.6,30.13,SE,135,0.0,0.0,68,0.00,,,0.00,WUHU216HW,2013-01-23 04:23:00,
2013-01-22 22:28:00,24.7,15.2,30.13,SE,135,0.0,0.0,67,0.00,,,0.00,WUHU216HW,2013-01-23 04:28:00,
2013-01-22 22:33:00,24.5,15.4,30.13,SE,135,0.0,0.0,68,0.00,,,0.00,WUHU216HW,2013-01-23 04:33:00,
2013-01-22 22:38:00,24.7,15.8,30.13,SE,135,0.0,0.2,69,0.00,,,0.00,WUHU216HW,2013-01-23 04:38:00,
2013-01-22 22:43:00,24.8,15.7,30.13,SE,135,0.0,0.4,68,0.00,,,0.00,WUHU216HW,2013-01-23 04:43:00,
2013-01-22 22:48:00,24.8,15.7,30.13,ESE,113,0.0,0.4,68,0.00,,,0.00,WUHU216HW,2013-01-23 04:48:00,
2013-01-22 22:53:00,24.8,15.4,30.13,South,180,0.0,0.2,67,0.00,,,0.00,WUHU216HW,2013-01-23 04:53:00,
2013-01-22 22:58:00,24.7,15.2,30.14,South,180,0.0,0.2,67,0.00,,,0.00,WUHU216HW,2013-01-23 04:58:00,
2013-01-22 23:01:00,24.7,15.2,30.14,South,180,0.0,0.2,67,0.00,,,0.00,WUHU216HW,2013-01-23 05:01:00,
2013-01-22 23:02:00,24.5,15.0,30.14,South,180,0.0,0.0,67,0.00,,,0.00,WUHU216HW,2013-01-23 05:02:00,
2013-01-22 23:03:00,24.5,15.0,30.14,South,180,0.0,0.0,67,0.00,,,0.00,WUHU216HW,2013-01-23 05:03:00,
2013-01-22 23:08:00,24.3,14.9,30.15,South,180,0.2,0.2,67,0.00,,,0.00,WUHU216HW,2013-01-23 05:08:00,
2013-01-22 23:13:00,24.1,14.7,30.15,South,180,0.0,0.2,67,0.00,,,0.00,WUHU216HW,2013-01-23 05:13:00,
2013-01-22 23:18:00,23.9,14.9,30.15,South,180,0.0,0.2,68,0.00,,,0.00,WUHU216HW,2013-01-23 05:18:00,
2013-01-22 23:23:00,23.8,14.7,30.14,South,180,0.0,0.0,68,0.00,,,0.00,WUHU216HW,2013-01-23 05:23:00,
2013-01-22 23:28:00,23.8,14.7,30.14,South,180,0.0,0.0,68,0.00,,,0.00,WUHU216HW,2013-01-23 05:28:00,
2013-01-22 23:33:00,23.8,15.0,30.14,South,180,0.0,0.0,69,0.00,,,0.00,WUHU216HW,2013-01-23 05:33:00,
2013-01-22 23:38:00,23.8,15.0,30.14,SSE,158,0.0,0.0,69,0.00,,,0.00,WUHU216HW,2013-01-23 05:38:00,
2013-01-22 23:43:00,23.8,15.0,30.15,ESE,113,0.1,0.2,69,0.00,,,0.00,WUHU216HW,2013-01-23 05:43:00,
2013-01-22 23:48:00,23.8,15.4,30.15,SE,135,0.0,0.2,70,0.00,,,0.00,WUHU216HW,2013-01-23 05:48:00,
2013-01-22 23:53:00,24.1,17.0,30.14,SE,135,0.2,0.2,74,0.00,,,0.00,WUHU216HW,2013-01-23 05:53:00,
2013-01-22 23:58:00,24.7,16.8,30.14,SE,135,0.2,1.1,72,0.00,,,0.00,WUHU216HW,2013-01-23 05:58:00,